Welcome to Des Moines Iowa Weather. I am an independent private personal weather station on the Northwest Side of Des Moines, Iowa. Just East of Windsor Heights and just West of Glendale . This site is also mobile friendly.

There are no active watches, warnings or advisories


Visit our other weather sites:

Historical Data

Weather Station Setup



Weather Underground History page Text

Daily Summary for September 16, 2017 Units:  English    Metric   Both
« Previous Day
Next Day »
Daily Weekly Monthly Yearly Custom
  High: Low: Average:
Temperature: 80.5 °F 65.8 °F 73.8 °F
Dew Point: 73.0 °F 63.0 °F 67.4 °F
Humidity: 91 % 63 % 81 %
Wind Speed: 3.0 mph 0.0 mph 0.2 mph
Wind Gust: 10.0 mph - -
Wind:- - ENE
Pressure: 29.95 in 29.81 in -
Precipitation: 0.10 in    
Historical Graphs
 
 
Tabular Data for September 16, 2017
Time Temperature Dew Point Pressure Wind Wind Speed Wind Gust Humidity Rainfall Rate (Hourly)
00:00 77.2 °F 63.6 °F 29.82 in Calm   4.0 mph 63 % 0.00 in
00:05 77.2 °F 64.5 °F 29.82 in Calm   4.0 mph 65 % 0.00 in
00:08 77.0 °F 65.0 °F 29.82 in Calm   4.0 mph 66 % 0.00 in
00:10 77.2 °F 64.5 °F 29.82 in Calm   4.0 mph 65 % 0.00 in
00:15 77.0 °F 65.6 °F 29.82 in Calm   4.0 mph 68 % 0.00 in
00:20 77.0 °F 65.6 °F 29.82 in Calm   4.0 mph 68 % 0.00 in
00:23 76.4 °F 66.0 °F 29.82 in Calm   5.0 mph 69 % 0.00 in
00:25 77.0 °F 65.6 °F 29.82 in Calm   4.0 mph 68 % 0.00 in
00:30 76.4 °F 65.5 °F 29.82 in Calm   6.0 mph 69 % 0.00 in
00:35 76.4 °F 65.5 °F 29.82 in Calm   6.0 mph 69 % 0.00 in
00:38 75.8 °F 65.0 °F 29.81 in Calm   3.0 mph 69 % 0.00 in
00:40 76.4 °F 65.5 °F 29.82 in Calm   6.0 mph 69 % 0.00 in
00:45 75.8 °F 65.3 °F 29.81 in Calm   3.0 mph 70 % 0.00 in
00:50 75.8 °F 65.3 °F 29.81 in Calm   3.0 mph 70 % 0.00 in
00:53 75.4 °F 65.0 °F 29.81 in Calm   4.0 mph 70 % 0.00 in
00:55 75.8 °F 65.3 °F 29.81 in Calm   3.0 mph 70 % 0.00 in
01:00 75.8 °F 65.3 °F 29.81 in Calm   3.0 mph 70 % 0.00 in
01:05 75.5 °F 65.0 °F 29.82 in Calm   4.0 mph 70 % 0.00 in
01:08 75.3 °F 65.0 °F 29.82 in Calm   2.0 mph 70 % 0.00 in
01:10 75.5 °F 65.0 °F 29.82 in Calm   4.0 mph 70 % 0.00 in
01:15 75.5 °F 65.0 °F 29.82 in Calm   4.0 mph 70 % 0.00 in
01:20 75.3 °F 64.8 °F 29.83 in Calm   3.0 mph 70 % 0.00 in
01:23 75.3 °F 65.0 °F 29.82 in Calm   2.0 mph 71 % 0.00 in
01:25 75.3 °F 64.8 °F 29.83 in Calm   3.0 mph 70 % 0.00 in
01:30 75.3 °F 64.8 °F 29.83 in Calm   3.0 mph 70 % 0.00 in
01:35 75.3 °F 64.8 °F 29.83 in Calm   2.0 mph 70 % 0.00 in
01:38 75.1 °F 65.0 °F 29.83 in Calm   1.0 mph 71 % 0.00 in
01:40 75.3 °F 64.8 °F 29.83 in Calm   2.0 mph 70 % 0.00 in
01:45 75.3 °F 64.8 °F 29.83 in Calm   2.0 mph 70 % 0.00 in
01:50 75.1 °F 65.0 °F 29.83 in Calm   4.0 mph 71 % 0.00 in
01:53 74.9 °F 65.0 °F 29.84 in Calm   4.0 mph 71 % 0.00 in
01:55 75.1 °F 65.0 °F 29.83 in Calm   4.0 mph 71 % 0.00 in
02:00 75.0 °F 64.9 °F 29.84 in Calm   4.0 mph 71 % 0.00 in
02:05 75.0 °F 64.9 °F 29.84 in Calm   4.0 mph 71 % 0.00 in
02:08 74.8 °F 65.0 °F 29.84 in Calm     71 % 0.00 in
02:10 75.0 °F 64.9 °F 29.84 in Calm   4.0 mph 71 % 0.00 in
02:15 74.8 °F 65.2 °F 29.84 in Calm     72 % 0.00 in
02:20 74.8 °F 65.2 °F 29.84 in Calm     72 % 0.00 in
02:24 74.7 °F 66.0 °F 29.84 in Calm   1.0 mph 74 % 0.00 in
02:25 74.8 °F 65.2 °F 29.84 in Calm     72 % 0.00 in
02:30 74.7 °F 66.2 °F 29.84 in Calm   2.0 mph 75 % 0.00 in
02:35 74.7 °F 66.2 °F 29.84 in Calm   2.0 mph 75 % 0.00 in
02:39 74.3 °F 66.0 °F 29.84 in Calm   4.0 mph 76 % 0.00 in
02:40 74.7 °F 66.2 °F 29.84 in Calm   2.0 mph 75 % 0.00 in
02:45 74.7 °F 66.2 °F 29.84 in Calm   2.0 mph 75 % 0.00 in
02:50 74.3 °F 66.2 °F 29.84 in Calm   4.0 mph 76 % 0.00 in
02:54 73.8 °F 66.0 °F 29.84 in Calm     76 % 0.00 in
02:55 74.3 °F 66.2 °F 29.84 in Calm   4.0 mph 76 % 0.00 in
03:00 74.3 °F 66.2 °F 29.84 in Calm   4.0 mph 76 % 0.00 in
03:05 73.9 °F 66.2 °F 29.84 in Calm   3.0 mph 77 % 0.00 in
03:09 73.5 °F 66.0 °F 29.84 in Calm     77 % 0.00 in
03:10 73.9 °F 66.2 °F 29.84 in Calm   3.0 mph 77 % 0.00 in
03:15 73.9 °F 66.2 °F 29.84 in Calm   3.0 mph 77 % 0.00 in
03:20 73.5 °F 65.8 °F 29.84 in Calm     77 % 0.00 in
03:24 73.1 °F 66.0 °F 29.84 in Calm     78 % 0.00 in
03:25 73.5 °F 65.8 °F 29.84 in Calm     77 % 0.00 in
03:30 73.2 °F 65.9 °F 29.85 in Calm     78 % 0.00 in
03:35 73.2 °F 65.9 °F 29.85 in Calm     78 % 0.00 in
03:39 72.8 °F 66.0 °F 29.84 in Calm     78 % 0.00 in
03:40 73.2 °F 65.9 °F 29.85 in Calm     78 % 0.00 in
03:45 72.9 °F 65.6 °F 29.85 in Calm     78 % 0.00 in
03:50 72.9 °F 65.6 °F 29.85 in Calm     78 % 0.00 in
03:54 72.7 °F 66.0 °F 29.85 in Calm     78 % 0.00 in
03:55 72.9 °F 65.6 °F 29.85 in Calm     78 % 0.00 in
04:00 72.7 °F 65.4 °F 29.85 in Calm     78 % 0.00 in
04:05 72.7 °F 65.4 °F 29.85 in Calm     78 % 0.00 in
04:09 72.5 °F 65.0 °F 29.84 in Calm     78 % 0.00 in
04:10 72.7 °F 65.4 °F 29.85 in Calm     78 % 0.00 in
04:15 72.5 °F 65.2 °F 29.84 in Calm     78 % 0.00 in
04:20 72.5 °F 65.2 °F 29.84 in Calm     78 % 0.00 in
04:24 72.3 °F 65.0 °F 29.84 in Calm     78 % 0.00 in
04:25 72.5 °F 65.2 °F 29.84 in Calm     78 % 0.00 in
04:30 72.5 °F 65.2 °F 29.84 in Calm     78 % 0.00 in
04:35 72.4 °F 65.1 °F 29.84 in Calm     78 % 0.00 in
04:39 72.2 °F 66.0 °F 29.84 in Calm     80 % 0.00 in
04:40 72.4 °F 65.1 °F 29.84 in Calm     78 % 0.00 in
04:45 72.4 °F 65.1 °F 29.84 in Calm     78 % 0.00 in
04:50 72.2 °F 66.0 °F 29.84 in Calm     81 % 0.00 in
04:54 72.1 °F 66.0 °F 29.83 in Calm     81 % 0.00 in
04:55 72.2 °F 66.0 °F 29.84 in Calm     81 % 0.00 in
05:00 72.2 °F 66.0 °F 29.84 in Calm     81 % 0.00 in
05:05 72.1 °F 65.9 °F 29.83 in Calm   1.0 mph 81 % 0.00 in
05:09 71.7 °F 66.0 °F 29.83 in Calm   1.0 mph 81 % 0.00 in
05:10 72.1 °F 65.9 °F 29.83 in Calm   1.0 mph 81 % 0.00 in
05:15 71.8 °F 65.6 °F 29.83 in Calm   1.0 mph 81 % 0.00 in
05:20 71.8 °F 65.6 °F 29.83 in Calm   1.0 mph 81 % 0.00 in
05:24 71.4 °F 65.0 °F 29.82 in Calm   2.0 mph 81 % 0.00 in
05:25 71.8 °F 65.6 °F 29.83 in Calm   1.0 mph 81 % 0.00 in
05:30 71.5 °F 65.3 °F 29.82 in Calm   3.0 mph 81 % 0.00 in
05:35 71.5 °F 65.3 °F 29.82 in Calm   3.0 mph 81 % 0.00 in
05:39 71.4 °F 65.0 °F 29.83 in Calm   3.0 mph 81 % 0.01 in
05:40 71.5 °F 65.3 °F 29.82 in Calm   3.0 mph 81 % 0.00 in
05:45 71.4 °F 64.9 °F 29.83 in Calm   3.0 mph 80 % 0.00 in
05:50 71.4 °F 64.9 °F 29.83 in Calm   3.0 mph 80 % 0.00 in
05:54 71.7 °F 65.0 °F 29.83 in WSW 3.0 mph 3.0 mph 80 % 0.01 in
05:55 71.4 °F 64.9 °F 29.83 in Calm   3.0 mph 80 % 0.00 in
06:00 71.4 °F 64.9 °F 29.83 in Calm   3.0 mph 80 % 0.00 in
06:05 71.6 °F 65.1 °F 29.84 in Calm   4.0 mph 80 % 0.00 in
06:09 71.8 °F 65.0 °F 29.84 in Calm   2.0 mph 80 % 0.01 in
06:10 71.6 °F 65.1 °F 29.84 in Calm   4.0 mph 80 % 0.00 in
06:15 71.6 °F 65.1 °F 29.84 in Calm   4.0 mph 80 % 0.00 in
06:20 71.8 °F 65.3 °F 29.84 in Calm   2.0 mph 80 % 0.00 in
06:24 71.7 °F 65.0 °F 29.84 in Calm   1.0 mph 80 % 0.01 in
06:25 71.8 °F 65.3 °F 29.84 in Calm   2.0 mph 80 % 0.00 in
06:30 71.8 °F 65.3 °F 29.84 in Calm   2.0 mph 80 % 0.00 in
06:35 71.8 °F 65.3 °F 29.85 in Calm   2.0 mph 80 % 0.00 in
06:39 71.6 °F 65.0 °F 29.85 in Calm   2.0 mph 80 % 0.00 in
06:40 71.8 °F 65.3 °F 29.85 in Calm   2.0 mph 80 % 0.00 in
06:45 71.8 °F 65.3 °F 29.85 in Calm   2.0 mph 80 % 0.00 in
06:50 71.6 °F 65.1 °F 29.86 in Calm   4.0 mph 80 % 0.00 in
06:54 71.5 °F 65.0 °F 29.86 in Calm   4.0 mph 80 % 0.00 in
06:55 71.6 °F 65.1 °F 29.86 in Calm   4.0 mph 80 % 0.00 in
07:00 71.5 °F 65.3 °F 29.86 in Calm   4.0 mph 81 % 0.00 in
07:05 71.5 °F 65.3 °F 29.86 in Calm   4.0 mph 81 % 0.00 in
07:09 71.4 °F 65.0 °F 29.86 in Calm   4.0 mph 81 % 0.00 in
07:10 71.5 °F 65.3 °F 29.86 in Calm   4.0 mph 81 % 0.00 in
07:15 71.4 °F 65.2 °F 29.86 in Calm   4.0 mph 81 % 0.00 in
07:20 71.4 °F 65.2 °F 29.86 in Calm   4.0 mph 81 % 0.00 in
07:24 71.3 °F 65.0 °F 29.86 in Calm   3.0 mph 81 % 0.00 in
07:25 71.4 °F 65.2 °F 29.86 in Calm   4.0 mph 81 % 0.00 in
07:30 71.4 °F 65.2 °F 29.86 in Calm   5.0 mph 81 % 0.00 in
07:35 71.4 °F 65.2 °F 29.86 in Calm   5.0 mph 81 % 0.00 in
07:39 71.4 °F 65.0 °F 29.86 in Calm   4.0 mph 81 % 0.00 in
07:40 71.4 °F 65.2 °F 29.86 in Calm   5.0 mph 81 % 0.00 in
07:45 71.4 °F 65.2 °F 29.86 in Calm   5.0 mph 81 % 0.00 in
07:50 71.4 °F 65.2 °F 29.86 in Calm   4.0 mph 81 % 0.00 in
07:54 71.4 °F 65.0 °F 29.86 in Calm   8.0 mph 81 % 0.00 in
07:55 71.4 °F 65.2 °F 29.86 in Calm   4.0 mph 81 % 0.00 in
08:00 71.4 °F 65.2 °F 29.86 in Calm   4.0 mph 81 % 0.00 in
08:05 71.4 °F 65.2 °F 29.86 in Calm   8.0 mph 81 % 0.00 in
08:09 71.5 °F 65.0 °F 29.86 in Calm   2.0 mph 81 % 0.00 in
08:10 71.4 °F 65.2 °F 29.86 in Calm   8.0 mph 81 % 0.00 in
08:15 71.4 °F 65.2 °F 29.86 in Calm   8.0 mph 81 % 0.00 in
08:20 71.5 °F 65.3 °F 29.86 in Calm   2.0 mph 81 % 0.00 in
08:24 71.6 °F 66.0 °F 29.85 in Calm   3.0 mph 82 % 0.00 in
08:25 71.5 °F 65.3 °F 29.86 in Calm   2.0 mph 81 % 0.00 in
08:30 71.6 °F 65.8 °F 29.86 in Calm   3.0 mph 82 % 0.00 in
08:35 71.6 °F 65.8 °F 29.86 in Calm   3.0 mph 82 % 0.00 in
08:39 71.9 °F 66.0 °F 29.86 in Calm   4.0 mph 81 % 0.00 in
08:40 71.6 °F 65.8 °F 29.86 in Calm   3.0 mph 82 % 0.00 in
08:45 71.8 °F 65.6 °F 29.86 in North 1.0 mph 4.0 mph 81 % 0.00 in
08:50 71.8 °F 65.6 °F 29.86 in North 1.0 mph 4.0 mph 81 % 0.00 in
08:54 72.0 °F 66.0 °F 29.86 in Calm   3.0 mph 81 % 0.00 in
08:55 71.8 °F 65.6 °F 29.86 in North 1.0 mph 4.0 mph 81 % 0.00 in
09:00 72.0 °F 65.8 °F 29.86 in Calm   3.0 mph 81 % 0.00 in
09:05 72.0 °F 65.8 °F 29.86 in Calm   3.0 mph 81 % 0.00 in
09:09 72.0 °F 66.0 °F 29.87 in Calm   2.0 mph 81 % 0.00 in
09:10 72.0 °F 65.8 °F 29.86 in Calm   3.0 mph 81 % 0.00 in
09:15 72.0 °F 65.8 °F 29.88 in Calm   4.0 mph 81 % 0.00 in
09:20 72.0 °F 65.8 °F 29.88 in Calm   4.0 mph 81 % 0.00 in
09:24 72.1 °F 66.0 °F 29.88 in Calm   3.0 mph 81 % 0.00 in
09:25 72.0 °F 65.8 °F 29.88 in Calm   4.0 mph 81 % 0.00 in
09:30 72.0 °F 65.8 °F 29.88 in Calm   4.0 mph 81 % 0.00 in
09:35 72.1 °F 66.3 °F 29.88 in Calm   3.0 mph 82 % 0.00 in
09:39 72.4 °F 66.0 °F 29.88 in Calm   4.0 mph 81 % 0.00 in
09:40 72.1 °F 66.3 °F 29.88 in Calm   3.0 mph 82 % 0.00 in
09:45 72.1 °F 66.3 °F 29.88 in Calm   3.0 mph 82 % 0.00 in
09:50 72.3 °F 66.1 °F 29.88 in Calm   4.0 mph 81 % 0.00 in
09:55 72.3 °F 66.1 °F 29.88 in Calm   4.0 mph 81 % 0.00 in
09:56 72.8 °F 67.0 °F 29.88 in Calm   3.0 mph 81 % 0.00 in
10:00 72.3 °F 66.1 °F 29.88 in Calm   4.0 mph 81 % 0.00 in
10:05 72.7 °F 66.5 °F 29.88 in Calm   3.0 mph 81 % 0.00 in
10:09 73.2 °F 66.0 °F 29.88 in WSW 2.0 mph 5.0 mph 79 % 0.00 in
10:10 72.7 °F 66.5 °F 29.88 in Calm   3.0 mph 81 % 0.00 in
10:15 73.2 °F 66.3 °F 29.88 in SW 1.0 mph 5.0 mph 79 % 0.00 in
10:20 73.2 °F 66.3 °F 29.88 in SW 1.0 mph 5.0 mph 79 % 0.00 in
10:25 73.6 °F 67.0 °F 29.88 in Calm   3.0 mph 79 % 0.00 in
10:30 73.5 °F 66.6 °F 29.88 in Calm   3.0 mph 79 % 0.00 in
10:35 73.5 °F 66.6 °F 29.88 in Calm   3.0 mph 79 % 0.00 in
10:40 74.2 °F 67.0 °F 29.88 in Calm   8.0 mph 79 % 0.00 in
10:45 74.3 °F 67.0 °F 29.88 in Calm     78 % 0.00 in
10:50 74.5 °F 67.2 °F 29.88 in Calm   2.0 mph 78 % 0.00 in
10:55 74.6 °F 67.0 °F 29.88 in Calm   2.0 mph 78 % 0.00 in
11:00 74.8 °F 67.5 °F 29.88 in Calm   6.0 mph 78 % 0.00 in
11:05 75.1 °F 67.4 °F 29.89 in ESE 1.0 mph 8.0 mph 77 % 0.00 in
11:10 75.6 °F 68.0 °F 29.88 in North 1.0 mph 8.0 mph 77 % 0.00 in
11:15 75.8 °F 67.7 °F 29.89 in NNE 1.0 mph 3.0 mph 76 % 0.00 in
11:20 75.9 °F 67.4 °F 29.89 in North 1.0 mph 2.0 mph 75 % 0.00 in
11:25 75.8 °F 67.0 °F 29.89 in Calm   5.0 mph 74 % 0.00 in
11:30 75.7 °F 67.2 °F 29.90 in North 1.0 mph 2.0 mph 75 % 0.00 in
11:35 75.6 °F 67.1 °F 29.90 in Calm     75 % 0.00 in
11:40 75.3 °F 67.0 °F 29.90 in Calm   4.0 mph 76 % 0.00 in
11:45 75.1 °F 67.0 °F 29.90 in Calm   2.0 mph 76 % 0.00 in
11:55 74.6 °F 68.0 °F 29.90 in Calm   5.0 mph 79 % 0.00 in
12:01 74.4 °F 67.4 °F 29.90 in Calm     79 % 0.00 in
12:07 74.2 °F 68.0 °F 29.90 in Calm   2.0 mph 81 % 0.00 in
12:13 74.0 °F 67.8 °F 29.90 in Calm   1.0 mph 81 % 0.00 in
12:19 74.0 °F 68.1 °F 29.90 in Calm   3.0 mph 82 % 0.00 in
12:25 74.2 °F 68.0 °F 29.89 in ENE 3.0 mph 5.0 mph 82 % 0.00 in
12:31 74.9 °F 68.3 °F 29.90 in Calm   1.0 mph 80 % 0.00 in
12:37 75.1 °F 68.1 °F 29.90 in Calm   2.0 mph 79 % 0.00 in
12:43 76.2 °F 69.2 °F 29.89 in Calm   2.0 mph 79 % 0.00 in
12:49 76.6 °F 68.8 °F 29.89 in Calm   1.0 mph 77 % 0.00 in
12:55 77.4 °F 69.0 °F 29.88 in Calm   6.0 mph 76 % 0.00 in
13:01 78.8 °F 70.2 °F 29.88 in Calm   3.0 mph 75 % 0.00 in
13:07 79.4 °F 70.8 °F 29.88 in Calm   1.0 mph 75 % 0.00 in
13:13 79.6 °F 69.8 °F 29.88 in Calm   3.0 mph 72 % 0.00 in
13:19 78.8 °F 69.4 °F 29.88 in Calm   5.0 mph 73 % 0.00 in
13:20 78.8 °F 69.4 °F 29.88 in SSE 1.0 mph 5.0 mph 73 % 0.00 in
13:25 78.3 °F 69.0 °F 29.87 in Calm   5.0 mph 74 % 0.00 in
13:30 79.3 °F 69.5 °F 29.88 in SE 1.0 mph 6.0 mph 72 % 0.00 in
13:35 79.3 °F 69.5 °F 29.88 in SE 1.0 mph 6.0 mph 72 % 0.00 in
13:40 80.5 °F 70.0 °F 29.86 in SE 1.0 mph 8.0 mph 71 % 0.00 in
13:45 78.8 °F 70.2 °F 29.87 in SE 1.0 mph 5.0 mph 75 % 0.00 in
13:50 78.8 °F 70.2 °F 29.87 in SE 1.0 mph 5.0 mph 75 % 0.00 in
13:55 79.3 °F 70.0 °F 29.87 in Calm   4.0 mph 73 % 0.00 in
14:00 80.2 °F 70.3 °F 29.86 in East 1.0 mph 8.0 mph 72 % 0.00 in
14:05 80.2 °F 70.3 °F 29.86 in East 1.0 mph 8.0 mph 72 % 0.00 in
14:10 79.4 °F 72.0 °F 29.88 in Calm   4.0 mph 77 % 0.07 in
14:15 79.4 °F 70.0 °F 29.88 in South 1.0 mph 4.0 mph 73 % 0.00 in
14:20 79.4 °F 70.0 °F 29.88 in South 1.0 mph 4.0 mph 73 % 0.00 in
14:25 78.9 °F 73.0 °F 29.87 in Calm     81 % 0.08 in
14:30 79.4 °F 71.9 °F 29.87 in Calm   4.0 mph 78 % 3.03 in
14:35 79.4 °F 71.9 °F 29.87 in Calm   4.0 mph 78 % 3.03 in
14:40 77.0 °F 71.0 °F 29.85 in Calm   3.0 mph 81 % 0.08 in
14:45 79.0 °F 73.0 °F 29.86 in Calm   1.0 mph 82 % 0.00 in
14:50 79.0 °F 73.0 °F 29.86 in Calm   1.0 mph 82 % 0.00 in
14:55 75.8 °F 70.0 °F 29.85 in Calm   2.0 mph 83 % 0.09 in
15:00 77.4 °F 71.5 °F 29.85 in Calm   3.0 mph 82 % 0.00 in
15:05 77.4 °F 71.5 °F 29.85 in Calm   3.0 mph 82 % 0.00 in
15:10 74.9 °F 70.0 °F 29.86 in Calm   4.0 mph 85 % 0.02 in
15:15 76.0 °F 70.8 °F 29.85 in Calm   2.0 mph 84 % 0.00 in
15:20 76.0 °F 70.8 °F 29.85 in Calm   2.0 mph 84 % 0.00 in
15:25 74.0 °F 70.0 °F 29.84 in Calm   6.0 mph 87 % 0.01 in
15:30 75.1 °F 70.6 °F 29.86 in Calm   4.0 mph 86 % 0.00 in
15:35 75.1 °F 70.6 °F 29.86 in Calm   4.0 mph 86 % 0.00 in
15:40 73.6 °F 70.0 °F 29.86 in Calm   3.0 mph 88 % 0.01 in
15:45 74.2 °F 70.1 °F 29.84 in East 1.0 mph 6.0 mph 87 % 0.00 in
15:50 74.2 °F 70.1 °F 29.84 in East 1.0 mph 6.0 mph 87 % 0.00 in
15:55 73.8 °F 70.0 °F 29.84 in North 2.0 mph 2.0 mph 89 % 0.00 in
16:00 73.7 °F 69.9 °F 29.86 in Calm   3.0 mph 88 % 0.00 in
16:05 73.7 °F 69.9 °F 29.86 in Calm   3.0 mph 88 % 0.00 in
16:10 73.9 °F 71.0 °F 29.84 in Calm   2.0 mph 89 % 0.00 in
16:15 73.7 °F 70.2 °F 29.85 in Calm   2.0 mph 89 % 0.00 in
16:20 73.7 °F 70.2 °F 29.85 in Calm   2.0 mph 89 % 0.00 in
16:25 73.8 °F 70.0 °F 29.83 in Calm     89 % 0.00 in
16:30 73.9 °F 70.4 °F 29.84 in Calm   2.0 mph 89 % 0.00 in
16:35 73.9 °F 70.4 °F 29.84 in Calm   2.0 mph 89 % 0.00 in
16:40 73.7 °F 70.0 °F 29.82 in Calm     88 % 0.00 in
16:45 73.9 °F 70.4 °F 29.84 in Calm     89 % 0.00 in
16:50 73.9 °F 70.4 °F 29.84 in Calm     89 % 0.00 in
16:55 73.8 °F 70.0 °F 29.82 in Calm   2.0 mph 88 % 0.00 in
17:00 73.8 °F 70.0 °F 29.82 in Calm   3.0 mph 88 % 0.00 in
17:05 73.8 °F 70.0 °F 29.82 in Calm   3.0 mph 88 % 0.00 in
17:10 74.3 °F 71.0 °F 29.83 in Calm   2.0 mph 89 % 0.00 in
17:15 73.8 °F 70.0 °F 29.83 in Calm   2.0 mph 88 % 0.00 in
17:20 73.8 °F 70.0 °F 29.83 in Calm   2.0 mph 88 % 0.00 in
17:25 75.0 °F 72.0 °F 29.84 in Calm   1.0 mph 89 % 0.00 in
17:30 74.2 °F 70.7 °F 29.84 in Calm   2.0 mph 89 % 0.00 in
17:35 74.2 °F 70.7 °F 29.84 in Calm   2.0 mph 89 % 0.00 in
17:40 75.7 °F 72.0 °F 29.84 in Calm   4.0 mph 87 % 0.00 in
17:45 74.9 °F 71.1 °F 29.85 in Calm   1.0 mph 88 % 0.00 in
17:50 74.9 °F 71.1 °F 29.85 in Calm   1.0 mph 88 % 0.00 in
17:55 76.1 °F 72.0 °F 29.84 in Calm     86 % 0.00 in
18:00 75.5 °F 71.3 °F 29.84 in Calm   4.0 mph 87 % 0.00 in
18:05 75.5 °F 71.3 °F 29.84 in Calm   4.0 mph 87 % 0.00 in
18:10 76.2 °F 71.0 °F 29.84 in Calm     85 % 0.00 in
18:15 76.0 °F 71.5 °F 29.84 in Calm     86 % 0.00 in
18:20 76.0 °F 71.5 °F 29.84 in Calm     86 % 0.00 in
18:25 76.2 °F 71.0 °F 29.85 in Calm     85 % 0.00 in
18:30 76.2 °F 71.3 °F 29.85 in Calm     85 % 0.00 in
18:35 76.2 °F 71.3 °F 29.85 in Calm     85 % 0.00 in
18:40 76.0 °F 71.0 °F 29.87 in Calm     85 % 0.00 in
18:45 76.2 °F 71.3 °F 29.86 in Calm     85 % 0.00 in
18:50 76.2 °F 71.3 °F 29.86 in Calm     85 % 0.00 in
18:55 75.9 °F 71.0 °F 29.88 in Calm     85 % 0.00 in
19:00 76.1 °F 71.3 °F 29.88 in Calm     85 % 0.00 in
19:05 76.1 °F 71.3 °F 29.88 in Calm     85 % 0.00 in
19:10 75.7 °F 71.0 °F 29.88 in Calm     86 % 0.00 in
19:15 75.9 °F 71.1 °F 29.88 in Calm     85 % 0.00 in
19:20 75.9 °F 71.1 °F 29.88 in Calm     85 % 0.00 in
19:25 75.4 °F 71.0 °F 29.89 in Calm     86 % 0.00 in
19:30 75.8 °F 71.3 °F 29.89 in Calm     86 % 0.00 in
19:35 75.8 °F 71.3 °F 29.89 in Calm     86 % 0.00 in
19:40 75.1 °F 71.0 °F 29.89 in Calm     86 % 0.00 in
19:45 75.5 °F 71.0 °F 29.89 in Calm     86 % 0.00 in
19:50 75.5 °F 71.0 °F 29.89 in Calm     86 % 0.00 in
19:55 75.5 °F 71.0 °F 29.89 in Calm     86 % 0.00 in
19:56 74.7 °F 71.0 °F 29.89 in Calm     87 % 0.00 in
20:00 75.2 °F 70.7 °F 29.89 in Calm     86 % 0.00 in
20:05 75.2 °F 70.7 °F 29.89 in Calm     86 % 0.00 in
20:10 74.5 °F 71.0 °F 29.89 in Calm     87 % 0.00 in
20:15 74.8 °F 70.7 °F 29.89 in Calm     87 % 0.00 in
20:20 74.8 °F 70.7 °F 29.89 in Calm     87 % 0.00 in
20:25 74.2 °F 71.0 °F 29.90 in Calm     88 % 0.00 in
20:30 74.5 °F 70.4 °F 29.90 in Calm     87 % 0.00 in
20:35 74.5 °F 70.4 °F 29.90 in Calm     87 % 0.00 in
20:40 73.9 °F 70.0 °F 29.89 in Calm     88 % 0.00 in
20:45 74.2 °F 70.4 °F 29.90 in Calm     88 % 0.00 in
20:50 74.2 °F 70.4 °F 29.90 in Calm     88 % 0.00 in
20:55 73.6 °F 70.0 °F 29.89 in Calm     89 % 0.00 in
21:00 73.9 °F 70.1 °F 29.90 in Calm     88 % 0.00 in
21:05 73.9 °F 70.1 °F 29.90 in Calm     88 % 0.00 in
21:10 73.7 °F 70.2 °F 29.90 in Calm     89 % 0.00 in
21:11 73.2 °F 70.0 °F 29.90 in Calm     89 % 0.00 in
21:15 73.7 °F 70.2 °F 29.90 in Calm     89 % 0.00 in
21:20 73.7 °F 70.2 °F 29.90 in Calm     89 % 0.00 in
21:25 72.8 °F 70.0 °F 29.91 in Calm     90 % 0.00 in
21:30 73.3 °F 69.8 °F 29.90 in Calm     89 % 0.00 in
21:35 73.3 °F 69.8 °F 29.90 in Calm     89 % 0.00 in
21:40 72.6 °F 70.0 °F 29.91 in Calm     90 % 0.00 in
21:45 72.9 °F 69.8 °F 29.91 in Calm     90 % 0.00 in
21:50 72.9 °F 69.8 °F 29.91 in Calm     90 % 0.00 in
21:55 72.4 °F 69.0 °F 29.91 in Calm     90 % 0.00 in
22:00 72.6 °F 69.5 °F 29.91 in Calm     90 % 0.00 in
22:05 72.6 °F 69.5 °F 29.91 in Calm     90 % 0.00 in
22:10 72.6 °F 69.5 °F 29.91 in Calm     90 % 0.00 in
22:15 72.4 °F 69.6 °F 29.92 in Calm     91 % 0.00 in
22:20 72.4 °F 69.6 °F 29.92 in Calm     91 % 0.00 in
22:25 72.0 °F 68.6 °F 29.94 in North 1.0 mph 8.0 mph 89 % 0.00 in
22:27 70.6 °F 67.0 °F 29.93 in Calm   8.0 mph 87 % 0.00 in
22:30 72.0 °F 68.6 °F 29.94 in North 1.0 mph 8.0 mph 89 % 0.00 in
22:35 72.0 °F 68.6 °F 29.94 in North 1.0 mph 8.0 mph 89 % 0.00 in
22:40 69.9 °F 66.0 °F 29.93 in Calm   4.0 mph 87 % 0.00 in
22:45 70.9 °F 66.8 °F 29.93 in North 1.0 mph 8.0 mph 87 % 0.00 in
22:50 70.9 °F 66.8 °F 29.93 in North 1.0 mph 8.0 mph 87 % 0.00 in
22:55 70.1 °F 66.4 °F 29.93 in Calm   6.0 mph 88 % 0.00 in
22:56 69.0 °F 65.0 °F 29.94 in North 2.0 mph 5.0 mph 88 % 0.00 in
23:00 70.1 °F 66.4 °F 29.93 in Calm   6.0 mph 88 % 0.00 in
23:05 70.1 °F 66.4 °F 29.93 in Calm   6.0 mph 88 % 0.00 in
23:10 70.1 °F 66.4 °F 29.93 in Calm   6.0 mph 88 % 0.00 in
23:11 68.1 °F 65.0 °F 29.94 in NE 3.0 mph 3.0 mph 89 % 0.00 in
23:15 69.3 °F 65.6 °F 29.94 in North 1.0 mph 5.0 mph 88 % 0.00 in
23:20 69.3 °F 65.6 °F 29.94 in North 1.0 mph 5.0 mph 88 % 0.00 in
23:25 69.3 °F 65.6 °F 29.94 in North 1.0 mph 5.0 mph 88 % 0.00 in
23:26 67.2 °F 64.0 °F 29.94 in Calm   10.0 mph 89 % 0.00 in
23:30 68.3 °F 64.9 °F 29.95 in North 1.0 mph 4.0 mph 89 % 0.00 in
23:35 68.3 °F 64.9 °F 29.95 in North 1.0 mph 4.0 mph 89 % 0.00 in
23:40 68.3 °F 64.9 °F 29.95 in North 1.0 mph 4.0 mph 89 % 0.00 in
23:41 66.3 °F 63.0 °F 29.95 in Calm   6.0 mph 90 % 0.00 in
23:45 67.4 °F 64.0 °F 29.94 in North 1.0 mph 10.0 mph 89 % 0.00 in
23:50 67.4 °F 64.0 °F 29.94 in North 1.0 mph 10.0 mph 89 % 0.00 in
23:55 67.4 °F 64.0 °F 29.94 in North 1.0 mph 10.0 mph 89 % 0.00 in
23:56 65.8 °F 63.0 °F 29.95 in North 2.0 mph 10.0 mph 90 % 0.00 in
Des Moines Weather and Climate
Compliments of Weather Underground - 4.25 mb

Script developed by  Jim McMurry - jmcmurry@mwt.net Adapted for the template by  Wim van der Kuil - Leuven-Template.eu

You find our weather info also at:

Weather Underground

Equipment we use:

Weather-station
Davis VP2 Plus

Weather-program
Davis Weatherlink.Com

Weather-server
iMac (Retina 4K, 21.5-inch, Late 2015)

Provider
Hostmonster.com

Davis VP2 Plus

Davis Weatherlink.Com

iMac (Retina 4K, 21.5-inch, Late 2015)

Hostmonster.com